{"data":{"norad_id":49755,"epoch":"2026-09-19T22:29:29.970816Z","epoch_age_seconds":93889,"freshness":"FRESH","line1":"1 49755U 21115AH  26262.93715244  .00000605  00000+0  29067-4 0  9991","line2":"2 49755  53.1604 344.4350 0001432  74.9726 285.1435 15.34387287265031","mean_motion":15.34387287,"eccentricity":0.0001432,"inclination_deg":53.1604,"raan_deg":344.435,"arg_perigee_deg":74.9726,"mean_anomaly_deg":285.1435,"bstar":2.9067e-5,"rev_number":26503,"period_min":93.848535646789,"perigee_km":461.76141244979,"apogee_km":463.72063991649,"semimajor_km":6840.8780261831,"source":"CELESTRAK","updated_at":"2026-09-20T09:00:39.409675Z"}}